Probability
0 0 0 0 0 0 0 0 0 0 0 0 0 1 1 1 1 2 2 2 3 3 3 3 3 4 3 3 2 1 0 0 0 0 0 0 0 0 0 0 0 0 0
0 0 0 0 0 0 0 0 0 0 0 0 0 0 0 0 0 1 1 1 2 3 3 3 2 2 2 2 1 0 0 0 0 0 0 0 0 0 0 0 0 0 0
0 0 0 0 0 0 0 0 0 0 0 0 0 0 0 0 0 0 0 0 1 1 2 2 1 0 1 1 1 0 0 0 0 0 0 0 0 0 0 0 0 0 0
0 0 0 0 0 0 0 0 0 0 0 0 0 0 0 0 0 0 0 0 0 0 1 1 0 0 0 0 0 0 0 0 0 0 0 0 0 0 0 0 0 0 0
0 0 0 0 0 0 0 0 0 0 0 0 0 0 0 0 0 0 0 0 0 0 0 0 0 0 0 0 0 0 0 0 0 0 0 0 0 0 0 0 0 0 0
0 0 0 0 0 0 0 0 0 0 0 0 0 0 0 0 0 0 0 0 0 0 0 0 0 0 0 0 0 0 0 0 0 0 0 0 0 0 0 0 0 0 0
0 0 0 0 0 0 0 0 0 0 0 0 0 0 0 0 0 0 0 0 0 0 0 0 0 0 0 0 0 0 0 0 0 0 0 0 0 0 0 0 0 0 0
0 0 0 0 0 0 0 0 0 0 0 0 0 0 0 0 0 0 0 0 0 0 0 0 0 0 0 0 0 0 0 0 0 0 0 0 0 0 0 0 0 0 0
0 0 0 0 0 0 0 0 0 0 0 0 0 0 0 0 0 0 0 0 0 0 0 0 0 0 0 0 0 0 0 0 0 0 0 0 0 0 0 0 0 0 0
0 0 0 0 0 0 0 0 0 0 0 0 0 0 0 0 0 0 0 0 0 0 0 0 0 0 0 0 0 0 0 0 0 0 0 0 0 0 0 0 0 0 0
0 0 0 0 0 0 0 0 0 0 0 0 0 0 0 0 0 0 0 0 0 0 0 0 0 0 0 0 0 0 0 0 0 0 0 0 0 0 0 0 0 0 0
0 0 0 0 0 0 0 0 0 0 0 0 0 0 0 0 0 0 0 0 0 0 0 0 0 0 0 0 0 0 0 0 0 0 0 0 0 0 0 0 0 0 0
0 0 0 0 0 0 0 0 0 0 0 0 0 0 0 0 0 0 0 0 0 0 0 0 0 0 0 0 0 0 0 0 0 0 0 0 0 0 0 0 0 0 0
0 0 0 0 0 0 0 0 0 0 0 0 0 0 0 0 0 0 0 0 0 0 0 0 0 0 0 0 0 0 0 0 0 0 0 0 0 0 0 0 0 0 0
0 0 0 0 0 0 0 0 0 0 0 0 0 0 0 0 0 0 0 0 0 0 0 0 0 0 0 0 0 0 0 0 0 0 0 0 0 0 0 0 0 0 0
0 0 0 0 0 0 0 0 0 0 0 0 0 0 0 0 0 0 0 0 0 0 0 0 0 0 0 0 0 0 0 0 0 0 0 0 0 0 0 0 0 0 0
0 0 0 0 0 0 0 0 0 0 0 0 0 0 0 0 0 0 0 0 0 0 0 0 0 0 0 0 0 0 0 0 0 0 0 0 0 0 0 0 0 0 0
0 0 0 0 0 0 0 0 0 0 0 0 0 0 0 0 0 0 0 0 0 0 0 0 0 0 0 0 0 0 0 0 0 0 0 0 0 0 0 0 0 0 0
0 0 0 0 0 0 0 0 0 0 0 0 0 0 0 0 0 0 0 0 0 0 0 0 0 0 0 0 0 0 0 0 0 0 0 0 0 0 0 0 0 0 0
0 0 0 0 0 0 0 0 0 0 0 0 0 0 0 0 0 0 0 0 0 0 0 0 0 0 0 0 0 0 0 0 0 0 0 0 0 0 0 0 0 0 0
0 0 0 0 0 0 0 0 0 0 0 0 0 0 0 0 0 0 0 0 0 0 0 0 0 0 0 0 0 0 0 0 0 0 0 0 0 0 0 0 0 0 0
0 0 0 0 0 0 0 0 0 0 0 0 0 0 0 0 0 0 0 0 0 0 0 0 0 0 0 0 0 0 0 0 0 0 0 0 0 0 0 0 0 0 0
0 0 0 0 0 0 0 0 0 0 0 0 0 0 0 0 0 0 0 0 0 0 0 0 0 0 0 0 0 0 0 0 0 0 0 0 0 0 0 0 0 0 0
0 0 0 0 0 0 0 0 0 0 0 0 0 0 0 0 0 0 0 0 0 0 0 0 0 0 0 0 0 0 0 0 0 0 0 0 0 0 0 0 0 0 0
0 0 0 0 0 0 0 0 0 0 0 0 0 0 0 0 0 0 0 0 0 0 0 0 0 0 0 0 0 0 0 0 0 0 0 0 0 0 0 0 0 0 0
0 0 0 0 0 0 0 0 0 0 0 0 0 0 0 0 0 0 0 0 0 0 0 0 0 0 0 0 0 0 0 0 0 0 0 0 0 0 0 0 0 0 0
Wind_Speed
7 6 6 6 6 6 6 6 6 6 6 6 6 6 6 6 5 5 4 4 3 3 2 3 4 4 4 4 5 5 5 6 9 5 4 5 5 5 5 4 5 5 5
6 6 6 6 6 6 6 6 5 6 6 6 6 6 6 6 6 5 5 5 4 4 3 4 5 4 5 5 5 6 6 6 9 11 6 5 5 6 5 5 6 6 6
6 6 6 6 6 6 5 5 5 6 6 6 6 7 7 6 6 6 6 5 5 5 5 5 5 5 6 5 6 6 7 8 7 9 8 5 4 5 5 5 5 4 7
6 6 6 5 5 5 5 5 5 6 6 7 7 7 8 8 8 7 6 7 7 7 7 7 6 6 6 7 7 8 8 8 8 8 7 6 5 5 4 3 3 3 3
5 5 5 5 5 5 6 6 6 7 8 7 8 8 8 8 8 7 6 8 8 9 9 9 10 12 12 9 8 7 8 7 6 7 6 5 4 4 3 3 4 3 2
5 5 5 5 5 5 5 6 6 7 7 8 9 9 10 9 13 13 8 7 7 8 8 8 10 11 14 15 15 12 9 7 6 6 6 6 5 3 2 2 2 3 2
5 5 5 5 5 5 6 6 7 7 7 8 8 8 9 12 15 15 12 7 8 7 7 7 9 10 10 9 12 13 12 11 9 6 6 5 5 2 2 2 2 2 2
5 5 5 5 6 5 6 6 6 6 6 6 7 7 8 11 14 13 11 8 8 9 9 9 9 9 9 7 9 10 10 9 8 7 6 5 5 3 2 1 2 1 0
5 5 5 5 5 5 6 6 5 5 5 6 6 7 8 9 13 13 9 6 8 9 10 11 10 9 12 11 8 9 8 6 9 11 9 7 6 5 3 2 1 1 1
5 5 4 5 5 5 5 4 4 4 5 6 7 7 8 8 12 13 9 4 6 6 7 9 13 11 11 11 7 7 7 5 5 5 4 2 2 2 1 1 1 1 1
5 5 5 5 5 5 4 3 3 4 5 6 6 6 6 7 10 14 12 5 4 5 6 6 6 10 12 11 8 6 5 2 2 2 2 2 1 1 1 1 2 2 2
6 5 5 4 4 5 3 3 4 4 5 5 5 5 5 6 7 9 13 12 9 7 6 5 5 8 8 7 5 5 5 3 0 1 2 2 2 1 1 2 2 1 1
6 5 4 5 5 4 3 3 2 3 3 4 4 4 4 3 4 8 9 11 11 6 5 5 4 4 3 3 4 5 4 1 2 3 3 2 2 1 1 0 1 1 2
6 5 4 4 4 4 3 3 4 4 4 3 4 4 4 5 5 4 3 4 4 4 3 3 2 2 2 2 2 2 2 3 3 2 2 1 1 0 1 1 1 1 2
5 5 5 5 5 5 6 6 7 6 5 5 4 4 4 5 4 5 5 5 4 4 3 1 1 1 1 1 1 1 2 2 2 2 2 1 1 1 0 0 1 2 2
4 4 4 4 4 5 6 7 11 8 10 12 9 6 6 6 4 6 7 7 7 7 3 1 1 1 2 2 2 1 2 2 2 2 2 2 2 2 1 1 1 1 2
4 3 3 3 3 3 5 5 5 5 7 8 8 7 6 4 4 5 7 9 8 6 2 1 2 2 2 2 2 2 2 2 1 2 2 2 2 2 2 2 2 2 2
4 4 3 3 3 3 3 4 5 5 4 3 2 2 2 1 2 4 6 6 4 2 1 1 2 1 1 2 2 2 2 1 1 2 2 2 2 2 2 2 2 2 2
3 3 2 2 2 3 3 3 4 5 5 5 4 3 2 2 3 5 4 3 3 1 1 2 2 2 2 2 2 1 1 1 1 1 1 1 2 2 2 2 2 3 3
3 3 1 2 3 3 3 3 3 4 4 4 4 4 4 4 3 3 3 3 2 1 2 2 2 2 1 1 0 1 1 0 1 1 1 1 1 2 3 3 3 3 3
5 5 3 3 3 3 2 2 2 3 4 4 3 3 1 3 3 2 2 1 1 2 2 1 0 1 0 0 1 2 2 1 1 1 2 2 2 2 3 3 3 4 4
5 6 5 4 3 3 2 3 2 2 3 5 5 5 3 3 2 2 2 1 1 1 1 1 2 1 1 2 2 2 2 2 2 3 3 4 3 3 3 3 3 3 4
4 5 4 3 3 3 3 3 3 3 3 4 5 5 4 3 1 1 2 2 2 1 1 1 1 1 2 2 1 2 2 3 3 3 3 4 4 4 4 4 5 5 5
5 5 5 4 4 4 4 4 4 3 3 3 3 3 3 2 2 1 1 2 2 2 1 1 1 0 1 0 1 1 3 3 3 3 5 5 6 5 5 5 5 6 5
4 4 4 4 4 4 4 4 4 3 3 3 3 3 3 3 3 3 3 3 3 2 3 2 2 2 2 2 1 3 5 3 2 2 3 4 6 6 6 7 6 6 6
5 5 5 5 5 4 4 4 4 4 4 4 3 3 3 3 3 3 3 3 3 3 3 3 4 4 4 3 3 6 6 4 3 2 3 4 6 6 6 6 8 7 8
Wind_Direction
50 46 45 42 39 41 41 36 30 21 20 24 24 28 33 31 30 32 36 36 44 50 72 91 95 100 108 115 119 122 119 117 123 124 130 140 138 137 143 154 151 151 151
55 50 48 46 42 41 40 34 30 28 26 29 31 37 42 40 34 34 37 39 42 54 70 86 95 103 108 116 121 126 127 125 130 132 135 140 147 148 160 169 166 168 163
60 55 49 48 46 42 41 36 31 31 33 36 38 39 38 39 40 42 48 50 54 58 66 78 84 92 98 103 111 116 118 120 119 127 133 140 148 160 166 182 168 157 170
64 61 54 47 45 44 44 42 40 41 42 40 42 42 42 38 34 42 57 59 62 63 64 69 71 79 93 104 104 106 113 116 121 127 136 145 148 163 167 171 158 179 172
67 67 62 52 50 50 48 45 43 45 52 49 48 45 43 41 30 35 58 71 73 74 74 75 75 79 79 87 96 103 113 118 126 132 135 138 145 155 173 177 161 169 177
71 67 67 65 64 61 59 57 57 55 55 54 51 52 47 38 25 32 46 64 73 81 87 88 87 82 84 86 89 91 96 107 115 121 126 131 133 138 142 159 142 145 165
78 73 70 71 73 68 67 66 64 62 61 60 56 55 51 31 25 29 38 59 64 67 71 77 84 79 75 86 89 84 76 75 86 100 105 112 112 109 108 100 98 121 146
84 77 73 78 77 70 64 61 62 64 66 66 62 57 53 35 25 27 38 61 61 61 61 65 72 66 58 65 86 83 75 63 69 77 82 83 81 61 49 84 128 128 123
86 76 73 79 84 79 71 67 65 69 70 71 66 59 54 37 27 30 40 69 67 63 61 57 61 60 48 61 81 90 90 85 79 83 86 91 88 76 52 28 37 81 136
91 85 80 82 82 81 76 72 77 80 80 78 70 61 58 48 33 33 36 74 85 85 78 67 57 55 52 58 67 78 81 79 91 99 94 102 122 109 72 39 10 42 98
93 89 82 85 91 89 84 78 79 82 84 84 81 70 60 51 44 39 38 44 64 86 83 71 53 51 55 56 63 70 74 60 94 125 138 140 134 124 124 95 52 57 64
98 95 90 84 89 92 89 86 86 93 96 92 92 85 69 57 45 42 44 46 53 65 72 74 65 54 52 49 55 42 28 4 14 113 108 101 103 97 81 83 69 61 116
106 101 94 84 76 75 79 87 88 86 93 101 100 95 87 80 60 48 51 54 56 64 72 79 76 57 37 47 45 17 2 3 69 74 76 84 103 114 109 117 250 261 262
119 119 113 102 96 81 58 53 54 55 61 74 83 87 84 65 44 27 41 67 76 73 83 92 78 50 17 18 22 15 36 50 56 68 71 62 48 133 222 217 229 244 251
123 122 120 113 103 84 65 48 60 48 47 60 57 60 72 74 43 32 32 28 25 26 339 244 198 182 153 115 77 64 65 68 57 41 34 25 26 22 355 325 286 290 286
122 126 119 119 125 120 109 84 54 66 65 66 64 74 76 83 74 41 33 18 8 3 350 309 127 115 104 97 90 80 73 61 43 30 22 22 16 0 340 320 308 320 325
118 115 126 133 135 130 127 125 116 83 63 64 66 71 83 85 46 21 9 351 335 338 327 333 73 69 64 68 79 70 77 80 39 8 10 14 357 333 329 334 341 341 326
128 123 136 145 148 144 144 146 147 145 141 128 98 90 91 59 3 348 349 338 300 258 261 62 83 83 67 55 60 56 50 61 45 10 5 359 343 328 327 330 330 335 322
140 134 144 145 150 147 153 145 144 152 151 147 149 163 212 247 284 292 307 284 292 353 64 58 52 58 65 68 73 77 32 33 57 336 315 319 321 318 326 329 323 315 295
129 119 147 164 155 157 162 160 158 160 153 153 165 161 172 202 220 224 234 262 298 42 50 53 52 40 31 3 231 194 215 209 225 266 288 317 320 319 320 318 315 310 303
159 157 200 211 176 175 174 169 169 168 158 159 144 125 157 224 207 198 188 195 30 45 48 8 269 194 205 274 10 13 345 325 7 5 352 339 327 317 307 300 297 299 302
166 170 189 188 169 172 182 191 192 181 167 156 146 161 198 256 237 170 151 133 120 118 92 347 327 360 54 33 24 343 333 3 24 28 360 337 325 313 306 304 307 310 309
179 178 179 170 160 154 204 207 192 192 182 165 165 168 186 218 203 156 139 133 127 111 120 194 288 341 65 69 18 328 352 32 27 18 344 320 320 318 311 310 310 308 306
183 184 176 167 182 190 199 197 196 197 183 177 181 179 180 189 208 169 157 150 155 172 193 199 231 30 79 203 267 36 58 52 21 359 351 329 315 307 310 312 308 311 315
195 188 185 187 199 203 204 203 201 201 199 195 197 197 189 190 194 186 179 174 183 204 205 205 216 222 216 218 184 122 121 112 86 354 320 304 302 303 303 304 306 309 309
208 195 196 194 201 211 216 213 206 207 210 205 202 204 206 206 197 183 180 184 198 199 202 206 207 215 217 206 170 147 160 174 187 231 288 290 292 293 302 302 304 303 299